Home   Weather   Barranquilla   Past weeks

Flag for Colombia Past Weather in Barranquilla, Colombia — Yesterday and Last 2 Weeks

Now
77 °F

Warm.


Feels Like: 78 °F
Forecast: 75 / 84 °F
Wind: 16 mph from North

Location: Barranquilla / Ernestocortissoz

Current Time: Feb 22, 2017 at 6:06:54 am

Latest Report: Feb 22, 2017 at 5:00 am


Visibility: N/A

Pressure: 29.83 "Hg

Humidity: 83%

Dew Point: 72 °F

Location of BarranquillaLocation

Past Weather in Barranquilla — Graph

°F

Barranquilla Temperature Yesterday

Maximum temperature yesterday: 90 °F (at 1:00 pm)
Minimum temperature yesterday: 77 °F (at 12:00 am)
Average temperature yesterday: 81 °F

High & Low Weather Summary for the Past Weeks

 TemperatureHumidityPressure
High91 °F (Feb 13, 12:00 pm)100% (Feb 15, 6:00 am)30.01 "Hg (Feb 15, 6:00 am)
Low70 °F (Feb 15, 6:00 am)49% (Feb 13, 12:00 pm)29.71 "Hg (Feb 8, 2:00 am)
Average81 °F77%29.86 "Hg
* Reported Feb 7 5:00 am — Feb 22 5:00 am, Barranquilla, Weather by CustomWeather, © 2017

Note: Actual official high and low records may vary slightly from our data, if they occured in-between our weather recording intervals... More about our weather records

Advertising

Barranquilla Weather History for the Previous 24 Hours

Scroll right to see more
 ConditionsComfort  
Time TempWeatherWind HumidityBarometerVisibility
5:00 am
Wed, Feb 22
77 °FWarm.16 mph83%29.83 "HgN/A
4:00 am77 °FPassing clouds.14 mph83%29.82 "HgN/A
3:00 am77 °FPassing clouds.16 mph83%29.82 "HgN/A
2:00 am77 °FPassing clouds.14 mph83%29.83 "HgN/A
1:00 am77 °FPassing clouds.14 mph83%29.85 "HgN/A
12:00 am77 °FWarm.14 mph83%29.87 "HgN/A
11:00 pm
Tue, Feb 21
77 °FWarm.17 mph83%29.90 "HgN/A
10:00 pm77 °FPassing clouds.14 mph83%29.90 "HgN/A
9:00 pm79 °FPassing clouds.17 mph79%29.89 "HgN/A
8:00 pm79 °FClear.16 mph79%29.87 "Hg10 mi
7:00 pm79 °FClear.16 mph79%29.86 "Hg10 mi
6:00 pm79 °FSunny.17 mph79%29.84 "Hg10 mi
5:00 pm82 °FPassing clouds.13 mph58%29.83 "HgN/A
4:00 pm84 °FPassing clouds.13 mph66%29.82 "HgN/A
3:00 pm88 °FPassing clouds.12 mph59%29.82 "HgN/A
2:00 pm86 °FPassing clouds.14 mph66%29.85 "HgN/A
1:00 pm90 °FScattered clouds.10 mph59%29.87 "HgN/A
12:00 pm88 °FScattered clouds.12 mph66%29.90 "HgN/A
11:00 am86 °FScattered clouds.7 mph70%29.92 "HgN/A
10:00 am84 °FPassing clouds.7 mph70%29.93 "HgN/A
9:00 am81 °FScattered clouds.12 mph74%29.93 "HgN/A
8:00 am79 °FScattered clouds.14 mph79%29.92 "HgN/A
7:00 am77 °FScattered clouds.12 mph79%29.89 "HgN/A
6:00 am77 °FPassing clouds.13 mph79%29.88 "HgN/A
Weather by CustomWeather, © 2017

See weather overviewHow to use our weather pages